User: anonymous   Login
Location: Caltech
(34.1382°N, 118.1253°W)
Time: 00:42:32
(UTC-07:00)
Language:

Oscar 19 - Orbit

View from above orbital plane
View from above orbital plane
View from above satellite
View from above satellite

Ground track
Ground track

The orbit data is extracted from the following two-line orbital elements,

1 20442U 90005G   16149.86157829  .00000036  00000-0  29211-4 0  9991
2 20442  98.5428  85.0732 0011283 198.1239 161.9544 14.32817042376584
Epoch (UTC): 28 May 2016 20:40:40
Eccentricity: 0.0011283
inclination: 98.5428°
perigee height: 774 km
apogee height: 790 km
right ascension of ascending node: 85.0732°
argument of perigee: 198.1239°
revolutions per day: 14.32817042
mean anomaly at epoch: 161.9544°
orbit number at epoch: 37658

The dashed part of the orbit path shows where the satellite is in the earth's shadow,  

DLR